Miscellaneous Local Product
Issued by NWS Hastings, NE

Home | Current Version | Previous Version | Graphics & Text | Print | Product List | Glossary On
Versions: 1 2 3 4 5 6 7 8 9 10 11 12 13 14 15 16 17 18 19 20 21 22 23 24 25 26 27 28 29 30 31 32 33 34 35 36 37 38 39 40 41 42 43 44 45 46 47 48 49 50
000
AXUS43 KGID 270802
MISGRI

GID CWA HOURLY WEATHER ROUNDUP
NATIONAL WEATHER SERVICE HASTINGS NE
200 AM CST THU NOV 27 2014

NOTE: "FAIR" INDICATES FEW OR NO CLOUDS BELOW 12,000 FEET WITH NO
SIGNIFICANT WEATHER AND/OR OBSTRUCTIONS TO VISIBILITY.

...SOUTH CENTRAL NEBRASKA...

CITY           SKY/WX    TMP DP  RH WIND       PRES   REMARKS
GRAND ISLAND   CLEAR     16  12  84 NE5       30.44F WCI   9
HASTINGS       PTCLDY    16  12  84 E3        30.41F
KEARNEY        CLOUDY    18  12  79 NE6       30.40F WCI   9
ORD            PTCLDY    13  10  88 S7        30.40S WCI   3
YORK           CLEAR     18  12  79 N8        30.45F WCI   7
AURORA         CLEAR     17  12  78 N5        30.44F WCI  10
LEXINGTON      CLOUDY    25  18  76 SE5       30.39F WCI  19
HOLDREGE       CLOUDY    23  17  79 E5        30.39F WCI  16
HEBRON         CLEAR     20  13  74 N3        30.47S

...NEBRASKA PANHANDLE...

CITY           SKY/WX    TMP DP  RH WIND       PRES   REMARKS
CHADRON        MOCLDY   N/A N/A N/A CALM      30.22F
ALLIANCE       CLOUDY    24  22  91 S8        30.22F WCI  15
SCOTTSBLUFF    CLEAR     19  17  92 E7        30.23S WCI  10
SIDNEY         PTCLDY    21  18  88 SW9       30.24F WCI  11

...WESTERN AND NORTH CENTRAL NEBRASKA...

CITY           SKY/WX    TMP DP  RH WIND       PRES   REMARKS
VALENTINE      CLOUDY    23  18  81 E5        30.34F WCI  17
AINSWORTH      CLOUDY    22  17  81 S6        30.34F WCI  14
ONEILL         CLOUDY    19  11  72 NE5       30.42S WCI  12
BROKEN BOW     CLOUDY    22  16  78 E7        30.35F WCI  13
IMPERIAL       PTCLDY    24  21  88 S6        30.32F WCI  17
NORTH PLATTE   CLOUDY    24  19  81 S6        30.34F WCI  17
MCCOOK         CLOUDY    28  19  69 SE3       30.38R

...EASTERN NEBRASKA...

CITY           SKY/WX    TMP DP  RH WIND       PRES   REMARKS
NORFOLK        CLOUDY    16   9  74 N7        30.45F WCI   6
SO SIOUX CITY  PTCLDY    15   9  76 NW9       30.50R WCI   3
TEKAMAH        CLEAR     15   9  76 NW3       30.50R
COLUMBUS       MOCLDY    18   7  62 NW3       30.48R
ALBION         MOCLDY    19  10  69 CALM      30.44S
OMAHA EPPLEY   PTCLDY    17  11  77 N6        30.51R WCI   9
OFFUTT AFB     CLOUDY    20  14  77 NW10      30.49R WCI   8
MILLARD        MOCLDY    18  12  77 NW7       30.50R WCI   9
LINCOLN        PTCLDY    18  12  77 N7        30.50F WCI   9
NEBRASKA CITY  CLOUDY    22  16  75 N10       30.47S WCI  12
BEATRICE       CLEAR     13  10  86 N6        30.47S WCI   4
FALLS CITY     CLOUDY    24  18  77 NW12G18   30.48R WCI  13

...NORTHERN KANSAS...

CITY           SKY/WX    TMP DP  RH WIND       PRES   REMARKS
GOODLAND       CLEAR     25  20  81 S8        30.33F WCI  16
HILL CITY      CLOUDY    30  18  60 SE5       30.42R WCI  25
NORTON         CLOUDY    25  16  68 SE3       30.39R
PHILLIPSBURG   CLOUDY    28  21  74 CALM      30.43S
SMITH CENTER   MOCLDY    19  16  86 CALM      30.43F
BELOIT         MOCLDY    21  18  86 NE6       30.45S WCI  14
HAYS           PTCLDY    28  14  54 E7        30.43S WCI  21
RUSSELL        CLEAR     23  17  78 S3        30.43S
CONCORDIA      CLEAR     20  15  81 NE5       30.47R WCI  13
SALINA         MOCLDY    27  17  66 NE5       30.48S WCI  22
TOPEKA         CLOUDY    27  20  75 NW7       30.49S WCI  19



USA.gov is the U.S. government's official web portal to all federal, state and local government web resources and services.